EW0791 Weather Reports


Display with metric or nautical units.
time (UTC)temp
F
wind
direction
speed
MPH
gust
MPH
rain 1hr
in
rain 24hr
in
rain mn
in
humidity
%
barometer
mb
20260504213350 72 194 5.0 15.0 0.00 0.00 0.00 33 1006.9
20260504211827 72 109 6.0 13.0 0.00 0.00 0.00 33 1006.8
20260504210323 72 258 3.0 17.0 0.00 0.00 0.00 34 1006.8
20260504204853 73 291 6.0 14.0 0.00 0.00 0.00 33 1006.9
20260504203325 73 245 6.0 11.0 0.00 0.00 0.00 32 1006.9
20260504201828 74 225 8.0 15.0 0.00 0.00 0.00 31 1006.7
20260504200323 73 198 4.0 20.0 0.00 0.00 0.00 32 1006.8
20260504194826 73 257 6.0 15.0 0.00 0.00 0.00 31 1006.8
20260504193320 73 279 5.0 12.0 0.00 0.00 0.00 32 1007.0
20260504191846 72 128 6.0 16.0 0.00 0.00 0.00 31 1007.0
20260504190321 72 261 5.0 20.0 0.00 0.00 0.00 33 1007.1
20260504184824 71 294 3.0 15.0 0.00 0.00 0.00 32 1007.1
20260504183336 71 30 9.0 20.0 0.00 0.00 0.00 31 1007.4
20260504181854 71 272 9.0 15.0 0.00 0.00 0.00 32 1007.6
20260504180327 70 215 9.0 21.0 0.00 0.00 0.00 31 1007.6
20260504174820 70 203 6.0 15.0 0.00 0.00 0.00 32 1007.6
20260504173318 70 246 9.0 18.0 0.00 0.00 0.00 33 1007.9
20260504171832 69 233 8.0 14.0 0.00 0.00 0.00 33 1007.8
20260504170325 68 308 5.0 16.0 0.00 0.00 0.00 34 1008.1
20260504160329 67 178 6.0 16.0 0.00 0.00 0.00 36 1008.5
20260504150325 65 245 9.0 18.0 0.00 0.00 0.00 38 1009.2
20260504140325 62 255 5.0 13.0 0.00 0.00 0.00 43 1009.8
20260504130340 58 250 5.0 12.0 0.00 0.00 0.00 47 1010.4
20260504110321 48 226 2.0 10.0 0.00 0.06 0.00 61 1010.6
20260504100329 46 204 1.0 3.0 0.00 0.06 0.00 63 1011.0
20260504081824 44 143 0.0 1.0 0.00 0.06 0.00 65 1010.9
20260504080331 44 206 1.0 4.0 0.00 0.06 0.00 65 1010.7
20260504070321 43 212 1.0 2.0 0.00 0.06 0.00 64 1010.7
20260504050342 39 237 1.0 3.0 0.00 0.06 0.00 72 1010.8
20260504044828 39 165 0.0 3.0 0.00 0.06 0.00 73 1010.9
20260504043321 39 213 1.0 2.0 0.00 0.06 0.00 73 1010.8
20260504041830 39 167 0.0 2.0 0.00 0.06 0.00 72 1010.9
20260504040324 39 274 1.0 2.0 0.00 0.06 0.00 72 1010.8
20260504034829 40 212 1.0 3.0 0.00 0.06 0.06 71 1010.7
20260504033323 38 201 1.0 2.0 0.00 0.06 0.06 74 1010.7
20260504031831 40 201 0.0 0.0 0.00 0.06 0.06 71 1010.5
20260504030327 40 224 0.0 2.0 0.00 0.06 0.06 70 1010.6
20260504024841 40 229 0.0 2.0 0.00 0.06 0.06 72 1010.5
20260504023319 40 229 0.0 1.0 0.00 0.06 0.06 71 1010.4
20260504021820 40 214 0.0 1.0 0.00 0.06 0.06 72 1010.5
20260504020323 40 214 0.0 2.0 0.00 0.06 0.06 72 1010.4
20260504014816 41 217 0.0 1.0 0.00 0.06 0.06 70 1010.3
20260504013316 42 217 0.0 1.0 0.00 0.06 0.06 68 1010.0
20260504011834 43 217 0.0 1.0 0.00 0.06 0.06 65 1009.9
20260504010348 43 217 0.0 0.0 0.00 0.06 0.06 62 1009.8
20260504004822 44 217 0.0 0.0 0.00 0.07 0.06 57 1009.6
20260504003329 46 217 0.0 0.0 0.00 0.07 0.06 55 1009.5
20260504001848 48 254 0.0 0.0 0.00 0.07 0.06 53 1009.4
20260504000346 50 270 0.0 2.0 0.00 0.07 0.06 49 1009.2
20260503234831 51 281 1.0 5.0 0.00 0.07 0.06 46 1009.1
20260503233348 51 279 2.0 4.0 0.00 0.07 0.06 45 1009.0
20260503231823 52 272 2.0 10.0 0.00 0.07 0.06 44 1008.9
20260503230338 52 304 2.0 8.0 0.00 0.07 0.06 43 1008.7
20260503224821 52 319 3.0 11.0 0.00 0.07 0.06 43 1008.6
20260503223330 54 331 3.0 12.0 0.00 0.07 0.06 40 1008.4
20260503221825 54 335 7.0 15.0 0.00 0.07 0.06 40 1008.1
20260503220322 52 286 5.0 13.0 0.00 0.07 0.06 41 1008.1
20260503214845 52 302 2.0 9.0 0.00 0.10 0.06 42 1008.0